MST,Max TemperatureF,Mean TemperatureF,Min TemperatureF,Max Dew PointF,MeanDew PointF,Min DewpointF,Max Humidity, Mean Humidity, Min Humidity, Max Sea Level PressureIn, Mean Sea Level PressureIn, Min Sea Level PressureIn, Max VisibilityMiles, Mean VisibilityMiles, Min VisibilityMiles, Max Wind SpeedMPH, Mean Wind SpeedMPH, Max Gust SpeedMPH,PrecipitationIn, CloudCover, Events, WindDirDegrees
2013-1-1,16,8,0,8,1,-4,88,79,70,30.61,30.43,30.24,10,4,0,5,0,6,0.00,5,,137
2013-1-2,15,7,-1,8,-1,-6,87,80,73,30.64,30.48,30.33,10,5,0,7,1,8,0.00,4,Fog,200
2013-1-3,15,6,-4,7,-4,-9,87,79,71,30.61,30.43,30.29,10,6,0,7,1,8,0.00,4,Fog,136
2013-1-4,18,8,-3,9,1,-7,95,81,67,30.63,30.54,30.32,10,9,2,7,1,8,0.00,1,,149
2013-1-5,22,10,-3,13,2,-8,91,80,68,30.56,30.42,30.26,10,10,6,6,1,7,0.00,2,,102
2013-1-6,30,18,6,17,12,6,92,73,53,30.31,30.24,30.15,10,10,10,7,1,8,0.00,5,,291
2013-1-7,24,15,5,21,16,2,96,88,80,30.27,30.12,30.01,10,4,0,6,0,7,0.40,8,Fog-Snow,340
2013-1-8,35,29,23,32,26,21,96,91,85,30.25,30.15,30.07,10,6,1,18,4,24,0.12,8,Rain-Snow,155
2013-1-9,39,35,30,32,30,28,92,78,64,30.20,29.79,29.61,10,5,1,21,6,26,0.33,8,Snow,177
2013-1-10,30,24,17,28,19,14,92,85,77,29.77,29.65,29.57,10,4,0,18,9,25,0.12,8,Fog-Snow,305
2013-1-11,19,11,1,12,7,-3,88,76,57,30.19,29.94,29.74,10,9,2,10,4,17,0.00,5,Snow,328
2013-1-12,11,-1,-14,4,-6,-16,95,84,72,30.39,30.25,29.99,10,8,1,8,2,10,0.00,1,,236
2013-1-13,15,2,-12,3,-8,-17,92,80,67,30.50,30.35,30.04,10,8,0,8,1,10,0.00,3,,271
2013-1-14,13,4,-6,10,3,-10,92,83,73,30.55,30.35,30.19,10,4,1,5,0,6,0.09,8,Snow,203
2013-1-15,22,12,2,13,10,2,92,80,68,30.76,30.61,30.30,10,10,6,7,1,8,0.00,4,,170
2013-1-16,21,10,-1,12,1,-6,95,81,67,30.83,30.66,30.52,10,5,0,6,1,6,0.00,5,,152
2013-1-17,19,10,1,11,1,-7,84,76,67,30.81,30.63,30.52,10,4,0,5,1,5,0.00,5,,0
2013-1-18,22,11,-1,13,-1,-8,92,80,67,30.67,30.53,30.38,10,6,0,6,0,6,0.00,4,,-1
2013-1-19,22,10,-3,13,1,-9,91,78,65,30.71,30.56,30.38,10,7,1,6,0,6,0.01,2,,185
2013-1-20,20,8,-4,13,0,-8,92,82,72,30.71,30.58,30.41,10,8,0,7,0,8,0.00,1,Fog,0
2013-1-21,26,12,-3,15,2,-7,92,80,68,30.62,30.49,30.34,10,7,0,5,0,6,0.00,2,Fog,170
2013-1-22,25,11,-4,15,1,-9,92,80,68,30.53,30.39,30.24,10,8,0,6,0,6,0.00,2,,180
2013-1-23,39,20,1,30,15,-2,96,83,69,30.36,30.22,30.08,10,7,1,21,3,25,0.05,5,Snow,53
2013-1-24,36,34,31,31,30,28,100,91,82,30.27,30.17,30.09,10,6,1,17,4,21,0.24,8,Snow,162
2013-1-25,36,34,32,34,31,30,100,95,89,30.25,30.12,29.96,10,5,1,15,2,22,0.48,8,Rain-Snow,39
2013-1-26,37,31,25,34,30,24,100,93,85,30.01,29.83,29.77,10,6,1,14,5,18,0.29,8,Rain-Snow,265
2013-1-27,29,20,10,22,16,10,100,79,58,30.04,29.93,29.84,10,8,1,12,4,15,0.01,5,Snow,315
2013-1-28,23,16,9,19,15,7,92,88,83,30.05,29.89,29.78,10,3,0,6,0,7,0.29,8,Fog-Snow,12
2013-1-29,31,26,21,25,21,19,92,85,78,30.25,30.00,29.77,10,4,1,15,2,20,0.29,8,Snow,304
2013-1-30,36,31,25,29,26,23,92,84,75,30.32,30.20,30.11,10,5,1,6,0,8,0.15,8,Snow,334
2013-1-31,34,30,25,31,27,24,100,93,85,30.37,30.27,30.19,10,4,0,5,0,5,0.03,8,Fog-Snow,145